Location: Augirein
(42.9320°N, 0.9181°E)
Time: 17:18:06
(UTC+00:00)

FALCON 9 DEB - Pass Details

Date: 20 June 2021
Orbit: 422 x 432 km, 53.0° (Epoch: 03 August)

Event Time Altitude Azimuth Distance (km) Brightness Sun altitude
Rises 03:08:49 0° 297° (WNW) 2,385 6.7 -10.4°
Reaches altitude 10° 03:11:08 10° 284° (WNW) 1,514 5.6 -10.1°
Maximum altitude 03:13:59 25° 226° (SW) 892 4.1 -9.8°
Drops below altitude 10° 03:16:49 10° 169° (S) 1,500 5.5 -9.4°
Sets 03:19:07 0° 156° (SSE) 2,359 6.6 -9.1°
